Location: Hurstbourne Priors
(51.2000°N, 1.3667°W)
Time: 21:56:38
(UTC+00:00)

Altair - Pass Details

Date: 19 April 2021
Orbit: 1501 x 1683 km, 47.2° (Epoch: 13 May)

Event Time Altitude Azimuth Distance (km) Brightness Sun altitude
Rises 09:29:36 0° 270° (W) 4,812 9.7 39.2°
Reaches altitude 10° 09:32:45 10° 268° (W) 3,802 9.3 39.6°
Maximum altitude 09:42:16 69° 188° (S) 1,639 8.6 40.7°
Drops below altitude 10° 09:51:26 10° 108° (ESE) 3,674 10.4 41.8°
Sets 09:54:26 0° 106° (ESE) 4,643 10.7 42.1°
